TimeCDT,TemperatureF,Dew PointF,Humidity,Sea Level PressureIn,VisibilityMPH,Wind Direction,Wind SpeedMPH,Gust SpeedMPH,PrecipitationIn,Events,Conditions,WindDirDegrees,DateUTC
12:15 AM,58.5,56.5,93,29.91,5.0,NW,4.6,-,N/A,,Overcast,320,2013-04-28 05:15:00
12:35 AM,58.5,56.5,93,29.92,10.0,SW,3.5,-,N/A,,Overcast,230,2013-04-28 05:35:00
12:55 AM,57.7,55.8,93,29.92,7.0,WSW,5.8,-,N/A,,Overcast,250,2013-04-28 05:55:00
1:15 AM,57.2,55.4,94,29.92,10.0,West,6.9,-,N/A,,Overcast,260,2013-04-28 06:15:00
1:35 AM,57.2,55.0,92,29.92,10.0,West,6.9,-,N/A,,Overcast,270,2013-04-28 06:35:00
1:55 AM,56.8,54.9,93,29.92,10.0,West,6.9,-,N/A,,Overcast,270,2013-04-28 06:55:00
2:15 AM,56.7,54.7,93,29.92,10.0,West,5.8,-,N/A,,Overcast,260,2013-04-28 07:15:00
2:35 AM,56.5,54.5,93,29.91,10.0,West,5.8,-,N/A,,Overcast,270,2013-04-28 07:35:00
2:55 AM,56.3,54.1,92,29.91,10.0,West,5.8,-,N/A,,Overcast,260,2013-04-28 07:55:00
3:15 AM,56.3,53.8,91,29.91,10.0,WSW,5.8,-,N/A,,Overcast,240,2013-04-28 08:15:00
3:35 AM,56.3,53.6,91,29.91,10.0,WSW,5.8,-,N/A,,Overcast,250,2013-04-28 08:35:00
3:55 AM,56.3,53.6,91,29.90,10.0,West,6.9,-,N/A,,Overcast,260,2013-04-28 08:55:00
4:15 AM,56.3,53.2,89,29.90,10.0,WSW,6.9,-,N/A,,Overcast,250,2013-04-28 09:15:00
4:35 AM,56.1,53.1,89,29.91,10.0,SW,5.8,-,N/A,,Overcast,230,2013-04-28 09:35:00
4:55 AM,55.9,53.1,90,29.91,10.0,WSW,4.6,-,N/A,,Overcast,250,2013-04-28 09:55:00
5:15 AM,55.8,52.7,89,29.91,10.0,WSW,5.8,-,N/A,,Overcast,250,2013-04-28 10:15:00
5:35 AM,55.8,52.7,89,29.92,10.0,WSW,4.6,-,N/A,,Overcast,240,2013-04-28 10:35:00
5:55 AM,55.6,52.7,90,29.93,10.0,West,4.6,-,N/A,,Overcast,260,2013-04-28 10:55:00
6:15 AM,55.6,52.3,89,29.93,10.0,West,3.5,-,N/A,,Overcast,260,2013-04-28 11:15:00
6:35 AM,55.6,52.3,89,29.94,10.0,West,3.5,-,N/A,,Overcast,270,2013-04-28 11:35:00
6:55 AM,55.6,52.3,89,29.95,10.0,West,4.6,-,N/A,,Overcast,270,2013-04-28 11:55:00
7:15 AM,55.8,52.3,88,29.95,10.0,West,3.5,-,N/A,,Overcast,270,2013-04-28 12:15:00
7:35 AM,55.9,52.3,88,29.95,10.0,West,4.6,-,N/A,,Overcast,270,2013-04-28 12:35:00
8:15 AM,56.5,52.7,87,29.95,10.0,WSW,3.5,-,N/A,,Overcast,240,2013-04-28 13:15:00
8:35 AM,56.5,52.5,87,29.96,10.0,WSW,3.5,-,N/A,,Overcast,240,2013-04-28 13:35:00
8:55 AM,56.7,52.3,85,29.96,10.0,SW,3.5,-,N/A,,Overcast,220,2013-04-28 13:55:00
9:15 AM,56.8,52.5,85,29.96,10.0,SSW,3.5,-,N/A,,Overcast,210,2013-04-28 14:15:00
9:35 AM,57.4,52.7,84,29.96,10.0,SW,5.8,-,N/A,,Overcast,230,2013-04-28 14:35:00
9:55 AM,58.1,52.9,83,29.96,10.0,WSW,6.9,-,N/A,,Overcast,240,2013-04-28 14:55:00
10:15 AM,58.1,52.7,82,29.96,10.0,SW,6.9,-,N/A,,Overcast,230,2013-04-28 15:15:00
10:35 AM,58.1,52.7,82,29.97,10.0,WSW,4.6,-,N/A,,Overcast,250,2013-04-28 15:35:00
10:55 AM,58.5,52.7,81,29.97,10.0,WSW,5.8,-,N/A,,Overcast,240,2013-04-28 15:55:00
11:15 AM,58.5,52.7,81,29.97,10.0,West,5.8,-,N/A,,Overcast,260,2013-04-28 16:15:00
11:35 AM,58.8,52.9,81,29.96,10.0,West,5.8,-,N/A,,Overcast,270,2013-04-28 16:35:00
11:55 AM,58.5,52.2,80,29.96,10.0,WSW,5.8,-,N/A,,Overcast,250,2013-04-28 16:55:00
12:15 PM,58.6,52.3,80,29.96,10.0,West,6.9,-,N/A,,Overcast,260,2013-04-28 17:15:00
12:35 PM,58.6,52.5,80,29.97,10.0,WNW,6.9,-,N/A,,Overcast,290,2013-04-28 17:35:00
12:55 PM,61.7,54.5,77,29.96,10.0,West,6.9,-,N/A,,Overcast,270,2013-04-28 17:55:00
1:15 PM,61.2,53.4,76,29.97,10.0,West,8.1,-,N/A,,Overcast,270,2013-04-28 18:15:00
1:35 PM,61.7,53.6,75,29.97,10.0,West,6.9,-,N/A,,Overcast,280,2013-04-28 18:35:00
1:55 PM,60.8,52.5,74,29.97,10.0,West,5.8,-,N/A,,Overcast,270,2013-04-28 18:55:00
2:15 PM,61.5,53.4,75,29.97,10.0,NW,4.6,-,N/A,,Overcast,320,2013-04-28 19:15:00
2:35 PM,60.8,52.7,75,29.97,10.0,NNW,4.6,-,N/A,,Overcast,340,2013-04-28 19:35:00
2:55 PM,61.3,53.1,74,29.96,10.0,Calm,Calm,-,N/A,,Overcast,0,2013-04-28 19:55:00
3:15 PM,61.9,53.2,73,29.95,10.0,WSW,3.5,-,N/A,,Overcast,250,2013-04-28 20:15:00
3:35 PM,62.2,52.7,71,29.95,10.0,Calm,Calm,-,N/A,,Overcast,0,2013-04-28 20:35:00
3:55 PM,61.2,52.7,74,29.94,10.0,WSW,3.5,-,N/A,,Overcast,250,2013-04-28 20:55:00
4:15 PM,62.1,53.2,73,29.94,10.0,Calm,Calm,-,N/A,,Overcast,0,2013-04-28 21:15:00
4:35 PM,62.2,52.9,71,29.94,10.0,SW,3.5,-,N/A,,Overcast,220,2013-04-28 21:35:00
4:55 PM,61.7,52.3,71,29.94,10.0,SW,3.5,-,N/A,,Overcast,230,2013-04-28 21:55:00
5:15 PM,61.7,52.7,72,29.95,10.0,Calm,Calm,-,N/A,,Overcast,0,2013-04-28 22:15:00
5:35 PM,61.3,52.7,73,29.94,10.0,Calm,Calm,-,N/A,,Overcast,0,2013-04-28 22:35:00
5:55 PM,61.3,53.1,74,29.95,10.0,Calm,Calm,-,N/A,,Overcast,0,2013-04-28 22:55:00
6:15 PM,61.0,53.2,76,29.95,10.0,Calm,Calm,-,N/A,,Overcast,0,2013-04-28 23:15:00
6:35 PM,61.0,53.4,76,29.94,10.0,Calm,Calm,-,N/A,,Overcast,0,2013-04-28 23:35:00
6:55 PM,60.8,53.6,77,29.94,10.0,South,3.5,-,N/A,,Overcast,190,2013-04-28 23:55:00
7:15 PM,60.3,53.2,78,29.94,10.0,Calm,Calm,-,N/A,,Overcast,0,2013-04-29 00:15:00
7:35 PM,60.3,53.6,79,29.94,10.0,Calm,Calm,-,N/A,,Overcast,0,2013-04-29 00:35:00
7:55 PM,60.1,53.6,79,29.94,10.0,South,3.5,-,N/A,,Overcast,180,2013-04-29 00:55:00
8:15 PM,60.1,53.8,80,29.94,10.0,Calm,Calm,-,N/A,,Overcast,0,2013-04-29 01:15:00
8:35 PM,59.9,53.6,80,29.94,10.0,Calm,Calm,-,N/A,,Overcast,0,2013-04-29 01:35:00
8:55 PM,59.9,53.8,80,29.95,10.0,Calm,Calm,-,N/A,,Overcast,0,2013-04-29 01:55:00
9:15 PM,59.9,54.0,81,29.95,10.0,Calm,Calm,-,N/A,,Overcast,0,2013-04-29 02:15:00
9:35 PM,59.2,53.6,82,29.96,10.0,Calm,Calm,-,N/A,,Overcast,0,2013-04-29 02:35:00
9:55 PM,58.3,53.4,84,29.97,10.0,Calm,Calm,-,N/A,,Overcast,0,2013-04-29 02:55:00
10:15 PM,58.5,53.8,84,29.96,10.0,Calm,Calm,-,N/A,,Overcast,0,2013-04-29 03:15:00
10:35 PM,58.6,54.0,84,29.97,10.0,SSW,3.5,-,N/A,,Overcast,200,2013-04-29 03:35:00
10:55 PM,59.0,54.1,84,29.96,10.0,SSW,4.6,-,N/A,,Overcast,200,2013-04-29 03:55:00
11:15 PM,59.0,54.0,83,29.95,10.0,SSW,3.5,-,N/A,,Overcast,210,2013-04-29 04:15:00
11:35 PM,58.5,53.6,84,29.95,10.0,Calm,Calm,-,N/A,,Overcast,0,2013-04-29 04:35:00
11:55 PM,57.9,52.9,83,29.95,10.0,Calm,Calm,-,N/A,,Mostly Cloudy,0,2013-04-29 04:55:00